• In Belarus
  • List of Countries
  • For 7 days
  • Water Temperature
  • Satellite Maps
  • Weather Map
  • Weather Widgets
  • user-avatar
    Login

    Hourly Weather Rouyn-Noranda

    Today, 19 January, Friday

    Time Temperature Precipitation Wind Pressure Humidity
    00:00 -7°C° 0.1 mm 2 mps 726 mmHg 96%
    01:00 -6°C° 0 mm 1 mps 726 mmHg 97%
    02:00 -7°C° 0.1 mm 2 mps 726 mmHg 96%
    03:00 -7°C° 0.1 mm 2 mps 726 mmHg 96%
    04:00 -7°C° 0.1 mm 2 mps 726 mmHg 96%
    05:00 -6°C° 0.1 mm 2 mps 726 mmHg 96%
    06:00 -6°C° 0.1 mm 2 mps 726 mmHg 96%
    07:00 -6°C° 0.1 mm 2 mps 725 mmHg 96%
    08:00 -7°C° 0 mm 3 mps 725 mmHg 94%
    09:00 -6°C° 0 mm 3 mps 725 mmHg 93%
    10:00 -6°C° 0 mm 3 mps 724 mmHg 91%
    11:00 -5°C° 0 mm 4 mps 724 mmHg 90%
    12:00 -4°C° 0 mm 4 mps 723 mmHg 88%
    13:00 -3°C° 0 mm 4 mps 722 mmHg 86%
    14:00 -3°C° 0 mm 4 mps 722 mmHg 86%
    15:00 -3°C° 0 mm 4 mps 721 mmHg 85%
    16:00 -3°C° 0 mm 4 mps 720 mmHg 84%
    17:00 -4°C° 0.5 mm 5 mps 720 mmHg 87%
    18:00 -4°C° 0.5 mm 5 mps 720 mmHg 90%
    19:00 -4°C° 0.5 mm 5 mps 719 mmHg 93%
    20:00 -4°C° 1 mm 5 mps 719 mmHg 93%
    21:00 -4°C° 1 mm 5 mps 718 mmHg 92%
    22:00 -5°C° 1 mm 5 mps 717 mmHg 92%
    23:00 -4°C° 0.9 mm 5 mps 717 mmHg 92%

    Tomorrow, 20 January, Saturday

    Time Temperature Precipitation Wind Pressure Humidity
    00:00 -4°C° 0.9 mm 5 mps 717 mmHg 92%
    01:00 -2°C° 0.9 mm 5 mps 716 mmHg 92%
    02:00 -2°C° 0.3 mm 5 mps 716 mmHg 91%
    03:00 -2°C° 0.3 mm 5 mps 716 mmHg 90%
    04:00 -2°C° 0.3 mm 5 mps 717 mmHg 89%
    05:00 -1°C° 0.2 mm 5 mps 717 mmHg 89%
    06:00 -1°C° 0.2 mm 5 mps 718 mmHg 89%
    07:00 -1°C° 0.2 mm 5 mps 719 mmHg 89%
    08:00 -2°C° 0.2 mm 5 mps 720 mmHg 88%
    09:00 -4°C° 0.2 mm 5 mps 721 mmHg 87%
    10:00 -5°C° 0.2 mm 5 mps 722 mmHg 87%
    11:00 -6°C° 0 mm 5 mps 723 mmHg 85%
    12:00 -8°C° 0 mm 5 mps 724 mmHg 84%
    13:00 -9°C° 0 mm 4 mps 725 mmHg 82%
    14:00 -10°C° 0 mm 4 mps 726 mmHg 83%
    15:00 -10°C° 0 mm 3 mps 727 mmHg 83%
    16:00 -10°C° 0 mm 3 mps 728 mmHg 84%
    17:00 -10°C° 0 mm 2 mps 729 mmHg 87%
    18:00 -13°C° 0 mm 2 mps 729 mmHg 90%
    19:00 -12°C° 0 mm 1 mps 730 mmHg 93%
    20:00 -12°C° 0 mm 1 mps 731 mmHg 93%
    21:00 -13°C° 0 mm 1 mps 731 mmHg 94%
    22:00 -14°C° 0 mm 0 mps 732 mmHg 94%
    23:00 -14°C° 0 mm 0 mps 731 mmHg 94%

    Day after tomorrow, 21 January, Sunday

    Time Temperature Precipitation Wind Pressure Humidity
    00:00 -14°C° 0 mm 0 mps 731 mmHg 94%
    01:00 -14°C° 0 mm 0 mps 731 mmHg 94%
    02:00 -13°C° 0.1 mm 0 mps 732 mmHg 94%
    03:00 -12°C° 0.1 mm 0 mps 732 mmHg 94%
    04:00 -12°C° 0.1 mm 0 mps 732 mmHg 94%
    05:00 -11°C° 0.2 mm 0 mps 732 mmHg 94%
    06:00 -11°C° 0.2 mm 0 mps 732 mmHg 95%
    07:00 -11°C° 0.2 mm 1 mps 732 mmHg 96%
    08:00 -11°C° 0.1 mm 1 mps 733 mmHg 95%
    09:00 -10°C° 0.1 mm 1 mps 733 mmHg 93%
    10:00 -12°C° 0.1 mm 2 mps 734 mmHg 92%
    11:00 -12°C° 0 mm 2 mps 734 mmHg 90%
    12:00 -12°C° 0 mm 2 mps 734 mmHg 88%
    13:00 -10°C° 0 mm 2 mps 735 mmHg 86%
    14:00 -13°C° 0 mm 3 mps 735 mmHg 86%
    15:00 -14°C° 0 mm 3 mps 736 mmHg 86%
    16:00 -14°C° 0 mm 3 mps 736 mmHg 86%
    17:00 -16°C° 0 mm 3 mps 737 mmHg 88%
    18:00 -17°C° 0 mm 3 mps 738 mmHg 90%
    19:00 -18°C° 0 mm 2 mps 739 mmHg 93%
    20:00 -19°C° 0 mm 2 mps 739 mmHg 93%
    21:00 -20°C° 0 mm 2 mps 740 mmHg 93%
    22:00 -21°C° 0 mm 2 mps 740 mmHg 93%
    23:00 -21°C° 0 mm 2 mps 740 mmHg 94%

    22 January, Monday

    Time Temperature Precipitation Wind Pressure Humidity
    00:00 -23°C° 0 mm 2 mps 741 mmHg 94%
    01:00 -24°C° 0 mm 2 mps 741 mmHg 95%
    02:00 -24°C° 0 mm 2 mps 741 mmHg 95%
    03:00 -24°C° 0 mm 2 mps 741 mmHg 94%
    04:00 -24°C° 0 mm 2 mps 741 mmHg 94%
    05:00 -24°C° 0 mm 2 mps 741 mmHg 94%
    06:00 -25°C° 0 mm 3 mps 741 mmHg 93%
    07:00 -25°C° 0 mm 3 mps 741 mmHg 93%
    08:00 -24°C° 0 mm 3 mps 741 mmHg 91%
    09:00 -23°C° 0 mm 3 mps 741 mmHg 89%
    10:00 -23°C° 0 mm 3 mps 741 mmHg 87%
    11:00 -21°C° 0 mm 3 mps 740 mmHg 84%
    12:00 -18°C° 0 mm 3 mps 739 mmHg 82%
    13:00 -18°C° 0 mm 4 mps 739 mmHg 80%
    14:00 -17°C° 0.1 mm 4 mps 738 mmHg 82%
    15:00 -17°C° 0.1 mm 4 mps 737 mmHg 84%
    16:00 -16°C° 0.1 mm 4 mps 736 mmHg 86%
    17:00 -17°C° 0.6 mm 5 mps 735 mmHg 88%
    18:00 -17°C° 0.6 mm 5 mps 734 mmHg 91%
    19:00 -17°C° 0.6 mm 5 mps 733 mmHg 94%
    20:00 -15°C° 1.5 mm 5 mps 732 mmHg 94%
    21:00 -15°C° 1.5 mm 5 mps 731 mmHg 94%
    22:00 -14°C° 1.5 mm 5 mps 730 mmHg 95%
    23:00 -14°C° 0.7 mm 5 mps 728 mmHg 93%

    23 January, Tuesday

    Time Temperature Precipitation Wind Pressure Humidity
    00:00 -13°C° 0.7 mm 5 mps 727 mmHg 92%
    01:00 -13°C° 0.7 mm 5 mps 726 mmHg 90%
    02:00 -12°C° 0.5 mm 5 mps 725 mmHg 92%
    03:00 -11°C° 0.5 mm 4 mps 723 mmHg 93%
    04:00 -10°C° 0.5 mm 4 mps 722 mmHg 94%
    05:00 -9°C° 0.5 mm 3 mps 721 mmHg 95%
    06:00 -8°C° 0.5 mm 3 mps 721 mmHg 95%
    07:00 -8°C° 0.5 mm 3 mps 720 mmHg 95%
    08:00 -7°C° 0.4 mm 3 mps 719 mmHg 96%
    09:00 -7°C° 0.4 mm 3 mps 719 mmHg 96%
    10:00 -6°C° 0.4 mm 2 mps 719 mmHg 96%
    11:00 -7°C° 0.4 mm 3 mps 719 mmHg 96%
    12:00 -7°C° 0.4 mm 3 mps 718 mmHg 96%
    13:00 -7°C° 0.4 mm 3 mps 718 mmHg 96%
    14:00 -9°C° 0.5 mm 4 mps 718 mmHg 95%
    15:00 -11°C° 0.5 mm 4 mps 719 mmHg 94%
    16:00 -13°C° 0.5 mm 5 mps 719 mmHg 92%
    17:00 -14°C° 0.3 mm 5 mps 720 mmHg 91%
    18:00 -15°C° 0.3 mm 5 mps 721 mmHg 90%
    19:00 -17°C° 0.3 mm 6 mps 722 mmHg 89%
    20:00 -18°C° 0.2 mm 6 mps 723 mmHg 89%
    21:00 -20°C° 0.2 mm 6 mps 724 mmHg 89%
    22:00 -21°C° 0.2 mm 6 mps 725 mmHg 88%
    23:00 -22°C° 0.1 mm 6 mps 726 mmHg 88%

    24 January, Wednesday

    Time Temperature Precipitation Wind Pressure Humidity
    00:00 -22°C° 0.1 mm 6 mps 726 mmHg 87%
    01:00 -22°C° 0.1 mm 6 mps 727 mmHg 86%
    02:00 -22°C° 0 mm 5 mps 728 mmHg 87%
    03:00 -24°C° 0 mm 5 mps 729 mmHg 87%
    04:00 -24°C° 0 mm 5 mps 729 mmHg 88%
    05:00 -25°C° 0 mm 5 mps 730 mmHg 88%
    06:00 -25°C° 0 mm 5 mps 731 mmHg 89%
    07:00 -26°C° 0 mm 5 mps 732 mmHg 89%
    08:00 -26°C° 0 mm 5 mps 732 mmHg 89%
    09:00 -25°C° 0 mm 5 mps 733 mmHg 89%
    10:00 -25°C° 0 mm 5 mps 734 mmHg 89%
    11:00 -25°C° 0 mm 5 mps 734 mmHg 88%
    12:00 -23°C° 0 mm 4 mps 734 mmHg 87%
    13:00 -22°C° 0 mm 4 mps 735 mmHg 87%
    14:00 -22°C° 0 mm 4 mps 735 mmHg 86%
    15:00 -22°C° 0 mm 4 mps 735 mmHg 86%
    16:00 -20°C° 0 mm 4 mps 736 mmHg 85%
    17:00 -21°C° 0 mm 3 mps 736 mmHg 88%
    18:00 -23°C° 0 mm 3 mps 737 mmHg 90%
    19:00 -24°C° 0 mm 3 mps 737 mmHg 92%
    20:00 -24°C° 0 mm 3 mps 737 mmHg 93%
    21:00 -24°C° 0 mm 2 mps 738 mmHg 94%
    22:00 -25°C° 0 mm 2 mps 738 mmHg 95%
    23:00 -26°C° 0 mm 2 mps 738 mmHg 96%
    Show more